time_stamp(utc),avg(mph),gust(mph),direction(deg),12m_air_temp(f),sonic_u(cm/s),sonic_v(cm/s),sonic_w(cm/s),pressure,2m_air_temp(f),pyranometer(W/m^2)
"2019-02-01 00:02:07+00",14.3,16.3,,17,-620,140,63,1027.95,17.1,0
"2019-02-01 00:07:07+00",16.1,19.1,,16.9,-704,95,26,1027.92,17.2,0
"2019-02-01 00:12:07+00",15.9,17.9,,16.9,-696,110,35,1028.08,17.1,0
"2019-02-01 00:17:07+00",14.1,15.1,,17,-611,165,41,1028.22,17.1,0
"2019-02-01 00:22:07+00",13.9,15.9,,16.9,-610,83,26,1028.3,17,0
"2019-02-01 00:27:07+00",12.3,14.3,,16.9,-541,135,36,1028.38,16.9,0
"2019-02-01 00:32:07+00",13.3,14.3,,17,-579,111,27,1028.26,16.9,0
"2019-02-01 00:37:07+00",13.0,17.0,,16.9,-561,106,38,1028.33,16.9,0
"2019-02-01 00:42:07+00",11.7,15.7,,16.9,-506,118,47,1028.36,16.9,0
"2019-02-01 00:47:07+00",14.0,16.0,,16.7,-609,123,37,1028.47,16.8,0
"2019-02-01 00:52:07+00",11.0,13.0,,16.8,-469,152,35,1028.41,16.8,0
"2019-02-01 00:57:07+00",11.8,14.8,,16.6,-495,185,29,1028.56,16.6,0
"2019-02-01 01:02:07+00",10.4,12.4,,16.4,-432,166,18,1028.51,16.4,0
"2019-02-01 01:07:07+00",10.1,11.1,,16.5,-413,167,31,1028.5,16.3,0
"2019-02-01 01:12:07+00",8.4,9.4,,16.4,-353,108,53,1028.43,16.2,0
"2019-02-01 01:17:07+00",9.1,11.1,,16.5,-378,146,51,1028.49,16.2,0
"2019-02-01 01:22:07+00",8.2,10.2,,16.2,-327,139,36,1028.53,15.9,0
"2019-02-01 01:27:07+00",8.5,10.5,,16.2,-312,208,37,1028.45,15.8,0
"2019-02-01 01:32:07+00",9.5,10.5,,16.2,-326,263,18,1028.44,15.7,0
"2019-02-01 01:37:07+00",8.9,9.9,,16.2,-339,189,14,1028.41,15.7,0
"2019-02-01 01:42:07+00",7.4,8.4,,16.3,-301,122,24,1028.42,15.7,0
"2019-02-01 01:47:07+00",7.2,9.2,,16.4,-287,126,27,1028.47,15.7,0
"2019-02-01 01:52:07+00",7.0,8.0,,16.2,-262,148,16,1028.43,15.5,0
"2019-02-01 01:57:07+00",7.7,9.7,,16.2,-265,214,38,1028.37,15.5,0
"2019-02-01 02:02:07+00",9.4,10.4,,16.2,-323,261,15,1028.35,15.5,0
"2019-02-01 02:07:07+00",9.4,10.4,,16.2,-300,287,21,1028.37,15.7,0
"2019-02-01 02:12:07+00",8.6,10.6,,16.3,-291,245,18,1028.38,15.7,0
"2019-02-01 02:17:07+00",4.0,5.0,,15.9,-32,162,4,1028.35,15.5,0
"2019-02-01 02:22:07+00",6.3,8.3,,15.4,-98,251,9,1028.33,15,0
"2019-02-01 02:27:07+00",5.9,6.9,,15.4,-124,226,0,1028.43,14.5,0
"2019-02-01 02:32:07+00",4.9,5.9,,15.3,-88,184,2,1028.41,14.2,0
"2019-02-01 02:37:07+00",6.0,9.0,,15.3,-152,212,15,1028.39,14,0
"2019-02-01 02:42:07+00",8.2,9.2,,15.6,-232,270,18,1028.47,14.2,0
"2019-02-01 02:47:07+00",8.2,9.2,,15.7,-213,285,30,1028.5,14.5,0
"2019-02-01 02:52:07+00",6.4,7.4,,15.8,-175,205,27,1028.64,14.7,0
"2019-02-01 02:57:07+00",5.7,6.7,,15.7,-139,191,20,1028.58,14.8,0
"2019-02-01 03:02:07+00",6.0,7.0,,15.7,-184,176,24,1028.55,14.8,0
"2019-02-01 03:07:07+00",5.2,6.2,,15.9,-132,172,11,1028.4,14.9,0
"2019-02-01 03:12:07+00",4.4,6.4,,15.7,-107,155,19,1028.39,14.8,0
"2019-02-01 03:17:07+00",6.3,7.3,,16,-197,190,17,1028.48,14.9,0
"2019-02-01 03:22:07+00",6.2,7.2,,15.9,-163,204,17,1028.39,15,0
"2019-02-01 03:27:07+00",6.6,6.6,,16,-254,134,14,1028.63,15.1,0
"2019-02-01 03:32:07+00",6.6,6.6,,16.1,-244,148,12,1028.58,15.3,0
"2019-02-01 03:37:07+00",7.4,8.4,,16.1,-267,185,24,1028.56,15.3,0
"2019-02-01 03:42:07+00",6.7,7.7,,16.2,-238,157,36,1028.53,15.4,0
"2019-02-01 03:47:07+00",5.7,6.7,,16.2,-219,123,24,1028.6,15.4,0
"2019-02-01 03:52:07+00",7.1,8.1,,16.3,-281,127,10,1028.54,15.3,0
"2019-02-01 03:57:07+00",5.1,6.1,,16.2,-202,106,16,1028.43,15.3,0
"2019-02-01 04:02:07+00",6.4,8.4,,16.2,-242,139,17,1028.51,15.3,0
"2019-02-01 04:07:07+00",6.6,6.6,,16.2,-256,144,28,1028.43,15.2,0
"2019-02-01 04:12:07+00",7.5,7.5,,16.3,-281,175,22,1028.56,15.2,0
"2019-02-01 04:17:07+00",6.0,7.0,,16.3,-229,126,18,1028.51,15.2,0
"2019-02-01 04:22:07+00",7.2,9.2,,16.2,-252,197,30,1028.52,15.2,0
"2019-02-01 04:27:07+00",8.6,9.6,,16.3,-262,270,27,1028.46,15.4,0
"2019-02-01 04:32:07+00",7.9,8.9,,16.3,-280,208,19,1028.62,15.5,0
"2019-02-01 04:37:07+00",6.1,7.1,,16.3,-166,207,14,1028.65,15.5,0
"2019-02-01 04:42:07+00",5.0,6.0,,15.7,-64,196,11,1028.55,15.2,0
"2019-02-01 04:47:07+00",7.0,8.0,,15.7,-134,268,20,1028.61,14.7,0
"2019-02-01 04:52:07+00",6.1,6.1,,15.9,-160,205,1,1028.65,14.6,0
"2019-02-01 04:57:07+00",5.9,6.9,,15.9,-169,190,6,1028.57,14.7,0
"2019-02-01 05:02:07+00",4.8,5.8,,16,-156,138,31,1028.59,14.8,0
"2019-02-01 05:07:07+00",6.6,7.6,,16.1,-184,219,15,1028.67,15.1,0
"2019-02-01 05:12:07+00",6.3,7.3,,16.2,-195,187,12,1028.74,15.2,0
"2019-02-01 05:17:07+00",7.1,8.1,,16.3,-239,210,25,1028.66,15.3,0
"2019-02-01 05:22:07+00",7.0,8.0,,16.3,-230,201,13,1028.62,15.4,0
"2019-02-01 05:27:07+00",8.0,9.0,,16.4,-294,204,28,1028.65,15.5,0
"2019-02-01 05:32:07+00",8.3,9.3,,16.4,-308,193,27,1028.55,15.6,0
"2019-02-01 05:37:07+00",9.0,10.0,,16.6,-324,232,19,1028.49,15.7,0
"2019-02-01 05:42:07+00",8.0,9.0,,16.6,-279,221,23,1028.51,15.8,0
"2019-02-01 05:47:07+00",8.0,10.0,,16.8,-276,221,48,1028.55,15.9,0
"2019-02-01 05:52:07+00",7.1,8.1,,16.2,-151,265,17,1028.45,15.8,0
"2019-02-01 05:57:07+00",7.8,9.8,,16.3,-224,252,30,1028.5,15.5,0
"2019-02-01 06:02:07+00",7.3,8.3,,15.5,-171,260,21,1028.58,15.1,0
"2019-02-01 06:07:07+00",8.3,9.3,,15.6,-189,303,16,1028.48,14.8,0
"2019-02-01 06:12:07+00",7.7,9.7,,15.6,-220,254,20,1028.5,14.8,0
"2019-02-01 06:17:07+00",7.9,8.9,,15.8,-211,269,21,1028.5,14.9,0
"2019-02-01 06:22:07+00",8.0,9.0,,15.8,-176,294,15,1028.55,14.9,0
"2019-02-01 06:27:07+00",8.2,10.2,,15.6,-221,284,31,1028.52,14.7,0
"2019-02-01 06:32:07+00",8.3,9.3,,15.7,-160,318,19,1028.55,14.7,0
"2019-02-01 06:37:07+00",8.0,8.0,,15.6,-205,282,16,1028.67,14.6,0
"2019-02-01 06:42:07+00",6.5,7.5,,15.7,-167,221,17,1028.61,14.6,0
"2019-02-01 06:47:07+00",7.6,8.6,,15.5,-174,277,12,1028.61,14.5,0
"2019-02-01 06:52:07+00",6.1,7.1,,15.4,-138,223,23,1028.65,14.4,0
"2019-02-01 06:57:07+00",6.3,7.3,,15.1,-131,243,8,1028.74,14,0
"2019-02-01 07:02:07+00",6.5,7.5,,15.1,-135,244,10,1028.85,13.7,0
"2019-02-01 07:07:07+00",7.1,7.1,,15.3,-149,264,19,1028.81,13.8,0
"2019-02-01 07:12:07+00",6.9,7.9,,15.4,-153,255,19,1028.83,13.9,0
"2019-02-01 07:17:07+00",6.1,7.1,,15.2,-140,231,12,1028.85,14,0
"2019-02-01 07:22:07+00",6.6,7.6,,15.3,-143,247,18,1028.81,14,0
"2019-02-01 07:27:07+00",7.2,8.2,,15.4,-129,279,17,1028.68,14.2,0
"2019-02-01 07:32:07+00",7.2,8.2,,15.3,-133,275,17,1028.77,14.2,0
"2019-02-01 07:37:07+00",7.4,8.4,,15.2,-127,289,15,1028.88,14.1,0
"2019-02-01 07:42:07+00",6.6,6.6,,15.1,-125,256,18,1028.87,14.1,0
"2019-02-01 07:47:07+00",7.2,8.2,,15.1,-139,275,13,1028.89,14.1,0
"2019-02-01 07:52:07+00",6.9,7.9,,15.1,-110,279,10,1028.85,14.1,0
"2019-02-01 07:57:07+00",7.4,8.4,,15.1,-142,286,14,1029.06,14.1,0
"2019-02-01 08:02:07+00",6.7,7.7,,14.9,-100,274,11,1029.02,14,0
"2019-02-01 08:07:07+00",7.1,8.1,,14.7,-105,283,11,1028.98,13.9,0
"2019-02-01 08:12:07+00",6.2,7.2,,14.7,-117,232,7,1029.14,13.8,0
"2019-02-01 08:17:07+00",5.8,6.8,,14.6,-102,223,9,1029.06,13.7,0
"2019-02-01 08:22:07+00",7.0,7.0,,14.6,-138,267,15,1029.09,13.6,0
"2019-02-01 08:27:07+00",7.2,8.2,,14.7,-149,273,13,1028.95,13.6,0
"2019-02-01 08:32:07+00",7.2,8.2,,14.9,-164,263,16,1028.99,13.7,0
"2019-02-01 08:37:07+00",7.3,8.3,,15.1,-169,265,10,1029.03,13.9,0
"2019-02-01 08:42:07+00",6.8,7.8,,15.1,-142,256,9,1028.9,13.9,0
"2019-02-01 08:47:07+00",7.5,7.5,,15.1,-134,289,8,1028.78,13.9,0
"2019-02-01 08:52:07+00",8.7,9.7,,14.8,-150,345,17,1028.94,14,0
"2019-02-01 08:57:07+00",7.2,8.2,,14.5,-143,277,17,1028.76,14,0
"2019-02-01 09:02:07+00",7.3,8.3,,14.3,-145,277,11,1028.83,14,0
"2019-02-01 09:07:07+00",4.7,5.7,,14.2,-74,179,24,1028.74,13.9,0
"2019-02-01 09:12:07+00",6.8,7.8,,13.9,-102,273,6,1028.78,13.7,0
"2019-02-01 09:17:07+00",6.2,7.2,,13.7,-137,229,7,1028.84,13.5,0
"2019-02-01 09:22:07+00",6.2,7.2,,13.9,-139,228,15,1028.98,13.5,0
"2019-02-01 09:27:07+00",7.3,8.3,,14,-109,288,10,1028.85,13.6,0
"2019-02-01 09:32:07+00",7.1,8.1,,14,-123,270,12,1028.77,13.7,0
"2019-02-01 09:37:07+00",6.8,7.8,,14.1,-110,266,11,1028.88,13.7,0
"2019-02-01 09:42:07+00",6.0,7.0,,14,-43,246,8,1028.77,13.7,0
"2019-02-01 09:47:07+00",6.3,7.3,,13.9,-64,261,6,1028.92,13.4,0
"2019-02-01 09:52:07+00",7.1,8.1,,14,-109,286,15,1029.08,13.3,0
"2019-02-01 09:57:07+00",6.6,8.6,,14.1,-88,273,11,1029.01,13.5,0
"2019-02-01 10:02:07+00",8.8,9.8,,14.2,-95,361,13,1028.93,13.5,0
"2019-02-01 10:07:07+00",8.6,10.6,,14.1,-80,356,7,1028.9,13.4,0
"2019-02-01 10:12:07+00",7.5,8.5,,14.1,-68,312,3,1028.9,13.4,0
"2019-02-01 10:17:07+00",7.6,8.6,,14.2,-75,307,8,1028.94,13.4,0
"2019-02-01 10:22:07+00",8.2,10.2,,14.2,-121,329,11,1029.14,13.5,0
"2019-02-01 10:27:07+00",7.7,8.7,,14.3,-90,316,10,1029.04,13.6,0
"2019-02-01 10:32:07+00",6.9,7.9,,14.4,-62,284,1,1029.11,13.7,0
"2019-02-01 10:37:07+00",5.8,6.8,,14.4,-40,251,10,1028.93,13.7,0
"2019-02-01 10:42:07+00",7.8,8.8,,14.3,-64,327,12,1029,13.7,0
"2019-02-01 10:47:07+00",8.1,9.1,,14.2,-32,346,5,1028.98,13.7,0
"2019-02-01 10:52:07+00",7.1,8.1,,14,21,301,5,1029.02,13.7,0
"2019-02-01 10:57:07+00",6.4,7.4,,14.1,22,269,6,1028.95,13.6,0
"2019-02-01 11:02:07+00",7.2,9.2,,14.2,28,308,1,1028.86,13.7,0
"2019-02-01 11:07:07+00",8.6,10.6,,14.4,41,369,0,1028.85,13.9,0
"2019-02-01 11:12:07+00",8.8,9.8,,14.2,54,367,10,1028.76,14,0
"2019-02-01 11:17:07+00",10.0,13.0,,14.3,74,416,15,1028.81,14,0
"2019-02-01 11:22:07+00",9.7,10.7,,14.4,77,405,1,1028.83,14,0
"2019-02-01 11:27:07+00",9.9,11.9,,14.4,43,426,13,1028.98,14,0
"2019-02-01 11:32:07+00",12.1,13.1,,14.2,107,502,-2,1028.88,14,0
"2019-02-01 11:37:07+00",12.3,13.3,,14.1,32,530,7,1029.02,13.9,0
"2019-02-01 11:42:07+00",11.0,13.0,,14,62,470,3,1029.05,13.9,0
"2019-02-01 11:47:07+00",11.8,13.8,,14,77,499,-3,1029.1,13.9,0
"2019-02-01 11:52:07+00",12.8,14.8,,14,110,536,-6,1029.1,14,0
"2019-02-01 11:57:07+00",11.9,13.9,,14.2,100,504,-3,1029.12,14.1,0
"2019-02-01 12:02:07+00",11.9,13.9,,14.2,109,494,0,1029.23,14.1,0
"2019-02-01 12:07:07+00",12.0,13.0,,14.1,87,494,10,1029.26,14.1,0
"2019-02-01 12:12:07+00",12.8,14.8,,14.2,84,542,3,1029.21,14.2,0
"2019-02-01 12:17:07+00",13.0,14.0,,14.2,70,555,6,1029.2,14.3,0
"2019-02-01 12:22:07+00",11.7,12.7,,14.2,25,511,7,1029.37,14.4,0
"2019-02-01 12:27:07+00",10.3,13.3,,14.3,59,436,13,1029.32,14.4,0
"2019-02-01 12:32:07+00",12.3,14.3,,14.2,104,518,-3,1029.39,14.5,0
"2019-02-01 12:37:07+00",11.8,12.8,,14.3,93,495,2,1029.46,14.5,0
"2019-02-01 12:42:07+00",10.7,11.7,,14.4,-12,468,24,1029.51,14.6,0
"2019-02-01 12:47:07+00",11.4,13.4,,14.4,-25,496,15,1029.39,14.7,0
"2019-02-01 12:52:07+00",12.2,14.2,,14.6,-27,525,1,1029.53,14.9,0
"2019-02-01 12:57:07+00",12.4,14.4,,14.5,-2,540,3,1029.7,14.9,1.5
"2019-02-01 13:02:07+00",12.9,14.9,,14.4,-71,556,7,1029.76,14.9,0.3
"2019-02-01 13:07:07+00",10.8,12.8,,14.5,-92,465,25,1029.96,14.9,0
"2019-02-01 13:12:07+00",12.1,13.1,,14.3,-123,520,9,1029.86,14.9,1.3
"2019-02-01 13:17:07+00",12.7,14.7,,14.3,-5,546,2,1029.98,14.9,3.7
"2019-02-01 13:22:07+00",12.3,14.3,,14.4,-51,537,5,1029.84,15,5.6
"2019-02-01 13:27:07+00",10.7,12.7,,14.5,-138,448,36,1029.88,15,11.1
"2019-02-01 13:32:07+00",11.2,12.2,,14.5,-78,479,32,1029.87,15.2,9.2
"2019-02-01 13:37:07+00",12.2,13.2,,14.5,-62,523,21,1029.75,15.3,9.1
"2019-02-01 13:42:07+00",11.1,13.1,,14.5,20,480,14,1029.68,15.3,20
"2019-02-01 13:47:07+00",10.7,13.7,,14.5,-23,466,14,1029.74,15.4,22.5
"2019-02-01 13:52:07+00",11.1,12.1,,14.6,-54,486,26,1029.92,15.5,25.5
"2019-02-01 13:57:07+00",11.4,12.4,,14.5,-13,489,5,1029.92,15.6,26.8
"2019-02-01 14:02:07+00",8.8,10.8,,14.9,17,383,14,1030.08,15.8,40.2
"2019-02-01 14:07:07+00",10.7,11.7,,14.5,31,460,-1,1029.96,15.8,52.1
"2019-02-01 14:12:07+00",9.5,10.5,,14.4,108,387,-2,1029.75,15.7,56.6
"2019-02-01 14:17:07+00",11.2,12.2,,14.4,-39,487,17,1029.88,15.7,42.9
"2019-02-01 14:22:07+00",10.8,11.8,,14.2,19,463,-5,1029.75,15.6,38.1
"2019-02-01 14:27:07+00",10.4,12.4,,14.4,-62,448,4,1029.75,15.6,42.3
"2019-02-01 14:32:07+00",9.1,11.1,,14.2,-84,384,14,1029.88,15.5,36.9
"2019-02-01 14:37:07+00",9.3,10.3,,14.2,-55,398,6,1029.93,15.5,30.5
"2019-02-01 14:42:07+00",7.1,9.1,,14.3,35,275,34,1029.82,15.5,36.6
"2019-02-01 14:47:07+00",8.4,9.4,,14.2,-8,359,11,1029.88,15.4,33.9
"2019-02-01 14:52:07+00",7.2,8.2,,14.1,-41,302,-8,1029.88,15.4,39.4
"2019-02-01 14:57:07+00",8.3,10.3,,14,-101,342,2,1029.99,15.2,43.6
"2019-02-01 15:02:07+00",6.7,7.7,,13.9,-103,266,11,1029.88,15,42.1
"2019-02-01 15:07:07+00",5.9,6.9,,13.9,-50,239,-8,1029.7,14.9,41.3
"2019-02-01 15:12:07+00",5.0,6.0,,13.8,65,193,-5,1029.74,14.9,46.6
"2019-02-01 15:17:07+00",5.6,6.6,,13.7,-12,229,-4,1029.76,15,42.2
"2019-02-01 15:22:07+00",4.7,5.7,,13.7,23,184,-1,1029.7,15.1,41.6
"2019-02-01 15:27:07+00",5.3,6.3,,13.6,41,215,-18,1029.64,15.1,51.7
"2019-02-01 15:32:07+00",5.0,7.0,,13.7,88,183,-12,1029.65,15.1,57.2
"2019-02-01 15:37:07+00",4.9,6.9,,14,35,182,34,1029.67,15.3,52.8
"2019-02-01 15:42:07+00",5.0,7.0,,14,24,192,26,1029.68,15.5,45.6
"2019-02-01 15:47:07+00",6.2,7.2,,13.6,8,262,19,1029.66,15.3,44.2
"2019-02-01 15:52:07+00",5.4,7.4,,13.7,-34,222,12,1029.53,15.3,41
"2019-02-01 15:57:07+00",5.5,7.5,,13.6,90,199,-9,1029.51,15.1,38.4
"2019-02-01 16:02:07+00",5.9,6.9,,13.7,16,243,5,1029.31,15.1,38.9
"2019-02-01 16:07:07+00",6.0,7.0,,13.7,21,231,3,1029.24,15.1,44
"2019-02-01 16:12:07+00",4.2,5.2,,13.7,34,156,2,1029.25,15,46.7
"2019-02-01 16:17:07+00",2.9,3.9,,13.9,75,69,25,1029.11,15.1,47
"2019-02-01 16:22:07+00",4.4,5.4,,13.8,60,164,-11,1029.11,15.2,50.6
"2019-02-01 16:27:07+00",3.6,4.6,,13.9,-52,135,30,1029.06,15.3,47
"2019-02-01 16:32:07+00",4.2,5.2,,14,68,144,1,1029.13,15.5,43.1
"2019-02-01 16:37:07+00",4.7,5.7,,13.9,54,173,15,1028.91,15.4,46.1
"2019-02-01 16:42:07+00",5.2,6.2,,14.1,91,185,14,1028.76,15.4,48.8
"2019-02-01 16:47:07+00",4.8,5.8,,14.2,14,181,34,1028.53,15.6,50.4
"2019-02-01 16:52:07+00",5.5,8.5,,14.3,8,214,27,1028.51,15.8,47.8
"2019-02-01 16:57:07+00",5.8,6.8,,14.2,-8,239,-8,1028.47,15.9,46.8
"2019-02-01 17:02:07+00",5.8,6.8,,14.3,3,234,1,1028.45,16,48.3
"2019-02-01 17:07:07+00",5.3,6.3,,14.5,-84,205,12,1028.27,16.1,57.3
"2019-02-01 17:12:07+00",5.0,7.0,,14.8,34,201,-2,1028.06,16.3,59.5
"2019-02-01 17:17:07+00",7.2,8.2,,14.8,97,266,-5,1027.79,16.3,56
"2019-02-01 17:22:07+00",6.6,7.6,,14.9,163,220,-20,1027.71,16.5,58.2
"2019-02-01 17:27:07+00",5.3,7.3,,15.1,68,201,11,1027.68,16.6,57.2
"2019-02-01 17:32:07+00",6.3,7.3,,15.1,68,249,-16,1027.55,16.6,69.3
"2019-02-01 17:37:07+00",6.6,7.6,,15.3,115,248,1,1027.36,16.7,62.1
"2019-02-01 17:42:07+00",6.8,8.8,,15.4,136,230,9,1027.18,16.8,48.7
"2019-02-01 17:47:07+00",6.1,7.1,,15.4,77,231,-10,1027.02,16.7,41.7
"2019-02-01 17:52:07+00",5.6,6.6,,15.4,76,194,27,1026.87,16.7,75.7
"2019-02-01 17:57:07+00",6.6,7.6,,15.8,121,244,-1,1026.93,17.1,80.1
"2019-02-01 18:02:07+00",3.7,4.7,,16,37,135,0,1026.94,17.3,75.8
"2019-02-01 18:07:07+00",5.9,7.9,,16.1,72,218,13,1026.92,17.6,81.6
"2019-02-01 18:12:07+00",7.7,8.7,,16.2,133,286,5,1026.89,17.8,55.7
"2019-02-01 18:17:07+00",6.9,7.9,,16,60,277,-4,1026.78,17.6,61.2
"2019-02-01 18:22:07+00",7.8,9.8,,16.2,190,261,13,1026.79,17.7,63.4
"2019-02-01 18:27:07+00",7.6,8.6,,16.4,58,317,-11,1026.62,17.9,81.5
"2019-02-01 18:32:07+00",7.3,9.3,,16.4,81,281,9,1026.56,18.2,71.1
"2019-02-01 18:37:07+00",7.9,9.9,,16.5,116,308,12,1026.51,18.1,60.5
"2019-02-01 18:42:07+00",8.1,10.1,,16.5,117,309,2,1026.49,18,54.7
"2019-02-01 18:47:07+00",6.7,8.7,,16.6,114,236,5,1026.35,18,73.3
"2019-02-01 18:52:07+00",8.3,10.3,,16.8,101,330,7,1026.27,18.3,101.7
"2019-02-01 18:57:07+00",7.5,9.5,,17,51,303,22,1026.2,18.6,107.6
"2019-02-01 19:02:07+00",7.6,8.6,,17.1,27,321,8,1026.08,18.8,88.7
"2019-02-01 19:07:07+00",5.7,7.7,,17.3,112,200,7,1026.1,18.7,70.7
"2019-02-01 19:12:07+00",5.9,7.9,,17.2,108,211,11,1025.99,18.7,64.8
"2019-02-01 19:17:07+00",5.8,7.8,,17.3,120,181,29,1026.11,18.8,54.9
"2019-02-01 19:22:07+00",6.8,7.8,,17.4,79,265,-8,1025.99,18.9,67.7
"2019-02-01 19:27:07+00",5.3,6.3,,17.3,135,155,24,1026.06,18.7,51.1
"2019-02-01 19:32:07+00",5.6,7.6,,17.6,86,207,21,1025.96,18.9,43.4
"2019-02-01 19:37:07+00",6.2,7.2,,17.4,75,239,-12,1025.96,18.8,38.6
"2019-02-01 19:42:07+00",5.9,6.9,,17.3,38,239,6,1025.73,18.7,42.8
"2019-02-01 19:47:07+00",6.0,7.0,,17.5,28,256,14,1025.89,18.7,35.1
"2019-02-01 19:52:07+00",5.2,6.2,,17.6,109,161,11,1025.83,18.7,31.3
"2019-02-01 19:57:07+00",6.1,7.1,,17.6,156,182,27,1025.75,18.7,25.2
"2019-02-01 20:02:07+00",5.5,6.5,,17.5,94,195,16,1025.79,18.6,25.4
"2019-02-01 20:07:07+00",8.1,9.1,,17.2,213,252,-7,1025.77,18.2,28.2
"2019-02-01 20:12:07+00",8.4,9.4,,17.3,186,290,-3,1025.65,18.2,20.2
"2019-02-01 20:17:07+00",7.2,9.2,,17.4,192,218,16,1025.72,18.2,17.9
"2019-02-01 20:22:07+00",8.0,9.0,,17.3,172,292,-3,1025.87,18.1,11.7
"2019-02-01 20:27:07+00",8.0,9.0,,17.3,140,303,2,1025.88,18,7.2
"2019-02-01 20:32:07+00",6.8,7.8,,17.3,177,213,-4,1025.92,18,6.2
"2019-02-01 20:37:07+00",7.3,9.3,,17.3,161,253,3,1025.92,17.9,6.2
"2019-02-01 20:42:07+00",8.0,9.0,,17.3,168,297,-1,1025.82,17.9,5.3
"2019-02-01 20:47:07+00",7.4,8.4,,17.3,182,240,1,1025.83,17.8,5.5
"2019-02-01 20:52:07+00",6.5,8.5,,17.4,158,216,17,1025.87,17.8,4.8
"2019-02-01 20:57:07+00",6.4,7.4,,17.4,154,215,15,1025.89,17.8,4.5
"2019-02-01 21:02:07+00",7.6,8.6,,17.3,201,228,-8,1025.76,17.8,1.9
"2019-02-01 21:07:07+00",5.4,6.4,,17.3,117,188,-3,1025.82,17.7,0
"2019-02-01 21:12:07+00",6.9,7.9,,17.4,177,210,-3,1025.86,17.8,0
"2019-02-01 21:17:07+00",6.7,7.7,,17.4,154,229,7,1025.9,17.7,0
"2019-02-01 21:22:07+00",6.2,8.2,,17.5,128,219,7,1025.91,17.7,0
"2019-02-01 21:27:07+00",4.9,5.9,,17.4,124,140,31,1025.88,17.7,0
"2019-02-01 21:32:07+00",6.8,7.8,,17.5,158,231,-5,1025.78,17.7,0
"2019-02-01 21:37:07+00",5.7,6.7,,17.5,148,171,25,1025.66,17.7,0
"2019-02-01 21:42:07+00",6.0,7.0,,17.6,125,209,-2,1025.64,17.8,0
"2019-02-01 21:47:07+00",6.1,7.1,,17.6,73,237,3,1025.73,17.8,0
"2019-02-01 21:52:07+00",6.2,7.2,,17.7,5,262,4,1025.76,17.8,0
"2019-02-01 21:57:07+00",5.1,6.1,,17.7,27,207,16,1025.62,17.9,0
"2019-02-01 22:02:07+00",4.9,5.9,,17.8,46,193,-5,1025.76,17.9,0
"2019-02-01 22:07:07+00",6.2,7.2,,17.9,-22,263,18,1025.75,17.9,0
"2019-02-01 22:12:07+00",6.4,8.4,,17.9,-61,268,17,1025.79,17.9,0
"2019-02-01 22:17:07+00",7.2,8.2,,17.9,-75,299,8,1025.78,17.9,0
"2019-02-01 22:22:07+00",7.0,8.0,,17.9,-143,274,25,1025.97,17.9,0
"2019-02-01 22:27:07+00",7.2,8.2,,17.9,-143,281,32,1025.9,17.9,0
"2019-02-01 22:32:07+00",8.4,9.4,,17.8,-124,341,16,1025.98,17.8,0
"2019-02-01 22:37:07+00",8.4,9.4,,17.8,-133,341,9,1026.04,17.8,0
"2019-02-01 22:42:07+00",8.8,9.8,,17.8,-85,375,8,1026.11,17.8,0
"2019-02-01 22:47:07+00",8.4,9.4,,17.8,-101,338,21,1026.14,17.8,0
"2019-02-01 22:52:07+00",7.7,8.7,,17.8,-107,319,8,1026.18,17.7,0
"2019-02-01 22:57:07+00",7.0,8.0,,17.7,-108,283,5,1026.12,17.7,0
"2019-02-01 23:02:07+00",5.6,6.6,,17.8,-53,229,16,1026.22,17.7,0
"2019-02-01 23:07:07+00",5.8,6.8,,17.8,-54,242,6,1026.3,17.7,0
"2019-02-01 23:12:07+00",6.2,8.2,,17.9,-101,244,26,1026.26,17.8,0
"2019-02-01 23:17:07+00",7.4,8.4,,17.8,-156,279,22,1026.28,17.8,0
"2019-02-01 23:22:07+00",7.7,9.7,,17.9,-123,306,25,1026.23,17.8,0
"2019-02-01 23:27:07+00",8.9,8.9,,17.9,-168,344,21,1026.32,17.8,0
"2019-02-01 23:32:07+00",8.9,9.9,,17.8,-177,343,25,1026.34,17.8,0
"2019-02-01 23:37:07+00",7.8,8.8,,17.8,-141,306,15,1026.31,17.8,0
"2019-02-01 23:42:07+00",7.9,8.9,,17.8,-143,306,21,1026.45,17.8,0
"2019-02-01 23:47:07+00",8.7,9.7,,17.7,-154,337,19,1026.36,17.8,0
"2019-02-01 23:52:07+00",7.7,8.7,,17.8,-121,302,33,1026.37,17.7,0
"2019-02-01 23:57:07+00",7.9,8.9,,17.8,-175,296,15,1026.49,17.7,0
